Weather in Pyeongtaek

South Korea     36°59′48″N   127°05′54″E
temp.,
°C
wind,
m/s
gust,
m/s
humid.,
%
clouds,
%
prec.,
mm/h
press.,
hPa
HPBL,
m
21 april, wed
wed2100:00+12w0152100 0.0 102212
03:00+11sse1152100 0.0 102211
06:00+11ese115157 0.0 102310
09:00+17e2337100 0.0 1023279
12:00+23se1231100 0.0 1022792
15:00+25s1327100 0.0 10191528
18:00+17w5848100 0.0 1020200
21:00+14w4855100 0.0 1022194
22 april, thu
thu2200:00+14w1254100 0.0 102263
03:00+15ene2543100 0.0 102099
06:00+13wsw2354100 0.0 102183
09:00+18ene5639100 0.0 1020225
12:00+24se7928100 0.0 10182601
15:00+25se4826100 0.0 10163039
18:00+18wnw4847100 0.0 1018236
21:00+16e3452100 0.0 101992
23 april, fri
fri2300:00+12wnw5884100 0.2 1021245
03:00+14e496597 0.9 1020308
06:00+14ese41059100 0.1 1020363
09:00+14e51069100 0.6 1021378
12:00+16ese5958100 0.5 1020733
15:00+17e3757100 0.5 1019538
18:00+16ene3559100 0.0 1020156
21:00+15ene3665100 0.0 1022178
24 april, sat
sat2400:00+14ene3660100 0.0 1022153
03:00+13ene3561100 0.0 1021128
06:00+13ene246384 0.0 102292
09:00+16ene234716 0.0 1022515
12:00+20nw323744 0.0 10211447
15:00+19wnw6646100 0.0 10201118
18:00+16w4559100 0.0 1019271
21:00+13w3570100 0.0 1020116
25 april, sun
sun2500:00+12wsw12794 0.0 102028
03:00+11se22757 0.0 101920
06:00+12e4107133 0.0 1020277
09:00+16ese68524 0.0 1020897
12:00+19ese564861 0.0 10201444
15:00+19se4444100 0.0 10191604
18:00+14wsw3664100 0.0 1019230
21:00+14wsw2367100 0.0 1021145